{"data":{"norad_id":64140,"epoch":"2026-09-20T17:39:55.698912Z","epoch_age_seconds":120038,"freshness":"FRESH","line1":"1 64140U 25111T   26263.73606133  .00010815  00000+0  40191-3 0  9995","line2":"2 64140  43.0038  56.3109 0000658 284.5286  75.5493 15.27584054 75290","mean_motion":15.27584054,"eccentricity":6.58e-5,"inclination_deg":43.0038,"raan_deg":56.3109,"arg_perigee_deg":284.5286,"mean_anomaly_deg":75.5493,"bstar":0.00040191,"rev_number":7529,"period_min":94.266498542541,"perigee_km":482.58549168571,"apogee_km":483.48842217845,"semimajor_km":6861.1739569321,"source":"CELESTRAK","updated_at":"2026-09-21T09:00:35.235933Z"}}